Le nostre stazioni meteo in Italia

Pubblicità
Il mio iltempo24.it
Lampedusa, Italia (16490): Temperatura & dewpoint: 17.08.2017 09:00:00 - 23.08.2017 09:00:00 (CEST)Lampedusa, Italia (16490): velocità del vento: 17.08.2017 09:00:00 - 23.08.2017 09:00:00 (CEST)Lampedusa, Italia (16490): direzione del vento: 17.08.2017 09:00:00 - 23.08.2017 09:00:00 (CEST)Lampedusa, Italia (16490): visibility: 17.08.2017 09:00:00 - 23.08.2017 09:00:00 (CEST)
Data & Tempo tt [°C] td [°C] ff [km/h] ff [kn] dd vv [km]
23.08.2017 09:00:00 26,0 20,0 8 4 NNO 10
23.08.2017 08:00:00 26,0 20,0 8 4 NNE 10
23.08.2017 07:00:00 25,0 20,0 9 5 NNE 10
23.08.2017 06:00:00 25,0 20,0 13 7 NNE 10
23.08.2017 05:00:00 - - - - - -
23.08.2017 04:00:00 - - - - - -
23.08.2017 03:00:00 - - - - - -
23.08.2017 02:00:00 - - - - - -
23.08.2017 01:00:00 - - - - - -
23.08.2017 00:00:00 - - - - - -
22.08.2017 23:00:00 - - - - - -
22.08.2017 22:00:00 26,0 21,0 28 15 NNE 10
22.08.2017 21:00:00 26,0 21,0 22 12 N 10
22.08.2017 20:00:00 26,0 20,0 18 10 N 10
22.08.2017 19:00:00 27,0 21,0 21 11 N 10
22.08.2017 18:00:00 27,0 21,0 21 11 N 10
22.08.2017 17:00:00 28,0 20,0 22 12 N 10
22.08.2017 16:00:00 28,0 20,0 21 11 N 10
22.08.2017 15:00:00 28,0 21,0 22 12 NNO 10
22.08.2017 14:00:00 28,0 21,0 18 10 NNO 10
22.08.2017 13:00:00 28,0 20,0 22 12 N 10
22.08.2017 12:00:00 27,0 21,0 21 11 NNO 10
22.08.2017 11:00:00 27,0 20,0 22 12 N 10
22.08.2017 10:00:00 27,0 20,0 22 12 NNO 10
22.08.2017 09:00:00 26,0 19,0 18 10 NNO 10
22.08.2017 08:00:00 25,0 19,0 22 12 NNO 10
22.08.2017 07:00:00 25,0 19,0 18 10 NNO 10
22.08.2017 06:00:00 24,0 18,0 22 12 NNO 10
22.08.2017 05:00:00 - - - - - -
22.08.2017 04:00:00 - - - - - -
22.08.2017 03:00:00 - - - - - -
22.08.2017 02:00:00 - - - - - -
22.08.2017 01:00:00 - - - - - -
22.08.2017 00:00:00 - - - - - -
21.08.2017 23:00:00 - - - - - -
21.08.2017 22:00:00 25,0 21,0 24 13 NNO 10
21.08.2017 21:00:00 25,0 20,0 28 15 N 10
21.08.2017 20:00:00 25,0 21,0 24 13 NNO 10
21.08.2017 19:00:00 26,0 21,0 28 15 NNO 10
21.08.2017 18:00:00 26,0 21,0 28 15 NNO 10
21.08.2017 17:00:00 27,0 21,0 26 14 NNO 10
21.08.2017 16:00:00 27,0 22,0 35 19 N 10
21.08.2017 15:00:00 28,0 22,0 31 17 NNO 10
21.08.2017 14:00:00 27,0 21,0 44 24 NNO 10
21.08.2017 13:00:00 27,0 21,0 35 19 NNO 10
21.08.2017 12:00:00 27,0 20,0 37 20 NNO 10
21.08.2017 11:00:00 27,0 20,0 29 16 NNO 10
21.08.2017 10:00:00 26,0 20,0 34 18 NNO 10
21.08.2017 09:00:00 26,0 20,0 34 18 NNO 10
21.08.2017 08:00:00 25,0 19,0 24 13 NNO 10
21.08.2017 07:00:00 25,0 19,0 31 17 NNO 10
21.08.2017 06:00:00 25,0 19,0 22 12 NO 10
21.08.2017 05:00:00 - - - - - -
21.08.2017 04:00:00 - - - - - -
21.08.2017 03:00:00 - - - - - -
21.08.2017 02:00:00 - - - - - -
21.08.2017 01:00:00 - - - - - -
21.08.2017 00:00:00 - - - - - -
20.08.2017 23:00:00 - - - - - -
20.08.2017 22:00:00 27,0 19,0 16 9 NNO 10
20.08.2017 21:00:00 28,0 20,0 16 9 NNO 10
20.08.2017 20:00:00 28,0 20,0 13 7 NO 10
20.08.2017 19:00:00 29,0 22,0 11 6 NNO 10
20.08.2017 18:00:00 31,0 16,0 11 6 ONO 10
20.08.2017 17:00:00 29,0 23,0 15 8 N 10
20.08.2017 16:00:00 29,0 23,0 18 10 N 10
20.08.2017 15:00:00 30,0 23,0 15 8 NNO 10
20.08.2017 14:00:00 30,0 23,0 16 9 NO 10
20.08.2017 13:00:00 29,0 23,0 16 9 NO 10
20.08.2017 12:00:00 30,0 24,0 18 10 O 10
20.08.2017 11:00:00 28,0 24,0 16 9 OSO 10
20.08.2017 10:00:00 28,0 24,0 15 8 O 10
20.08.2017 09:00:00 27,0 24,0 11 6 OSO 10
20.08.2017 08:00:00 26,0 24,0 4 2 - 10
20.08.2017 07:00:00 26,0 23,0 5 3 NO 10
20.08.2017 06:00:00 25,0 23,0 4 2 NNO 10
20.08.2017 05:00:00 - - - - - -
20.08.2017 04:00:00 - - - - - -
20.08.2017 03:00:00 - - - - - -
20.08.2017 02:00:00 - - - - - -
20.08.2017 01:00:00 - - - - - -
20.08.2017 00:00:00 27,0 24,0 11 6 SSE 10
19.08.2017 23:00:00 27,0 24,0 9 5 SSO 10
19.08.2017 22:00:00 - - - - - -
19.08.2017 21:00:00 - - - - - -
19.08.2017 20:00:00 27,0 23,0 5 3 S 10
19.08.2017 19:00:00 28,0 23,0 8 4 S 10
19.08.2017 18:00:00 29,0 23,0 8 4 SSO 10
19.08.2017 17:00:00 29,0 23,0 11 6 S 10
19.08.2017 16:00:00 29,0 23,0 11 6 S 10
19.08.2017 15:00:00 30,0 23,0 11 6 S 10
19.08.2017 14:00:00 29,0 23,0 11 6 SSE 10
19.08.2017 13:00:00 29,0 23,0 11 6 SSE 10
19.08.2017 12:00:00 28,0 23,0 9 5 SSE 10
19.08.2017 11:00:00 28,0 23,0 9 5 SSE 10
19.08.2017 10:00:00 28,0 23,0 5 3 S 10
19.08.2017 09:00:00 28,0 23,0 5 3 SSO 10
19.08.2017 08:00:00 26,0 23,0 4 2 ONO 10
19.08.2017 07:00:00 26,0 23,0 4 2 S 10
19.08.2017 06:00:00 26,0 23,0 9 5 ESE 10
19.08.2017 05:00:00 - - - - - -
19.08.2017 04:00:00 - - - - - -
19.08.2017 03:00:00 - - - - - -
19.08.2017 02:00:00 - - - - - -
19.08.2017 01:00:00 - - - - - -
19.08.2017 00:00:00 26,0 24,0 11 6 ENE 10
18.08.2017 23:00:00 27,0 24,0 11 6 ENE 10
18.08.2017 22:00:00 27,0 24,0 9 5 ENE 10
18.08.2017 21:00:00 27,0 23,0 11 6 NE 10
18.08.2017 20:00:00 27,0 23,0 8 4 ENE 10
18.08.2017 19:00:00 28,0 23,0 9 5 ENE 10
18.08.2017 18:00:00 28,0 22,0 11 6 ENE 10
18.08.2017 17:00:00 28,0 22,0 11 6 ENE 10
18.08.2017 16:00:00 29,0 22,0 15 8 ENE 10
18.08.2017 15:00:00 29,0 22,0 13 7 ENE 10
18.08.2017 14:00:00 29,0 22,0 11 6 NE 10
18.08.2017 13:00:00 29,0 23,0 16 9 NNE 10
18.08.2017 12:00:00 29,0 23,0 16 9 N 10
18.08.2017 11:00:00 - - - - - -
18.08.2017 10:00:00 28,0 23,0 21 11 N 10
18.08.2017 09:00:00 27,0 22,0 24 13 N 10
18.08.2017 08:00:00 27,0 21,0 13 7 NNO 10
18.08.2017 07:00:00 26,0 20,0 22 12 NNO 10
18.08.2017 06:00:00 26,0 20,0 15 8 NO 10
18.08.2017 05:00:00 - - - - - -
18.08.2017 04:00:00 - - - - - -
18.08.2017 03:00:00 - - - - - -
18.08.2017 02:00:00 - - - - - -
18.08.2017 01:00:00 - - - - - -
18.08.2017 00:00:00 - - - - - -
17.08.2017 23:00:00 - - - - - -
17.08.2017 22:00:00 27,0 23,0 5 3 NO 10
17.08.2017 21:00:00 27,0 23,0 8 4 NNO 10
17.08.2017 20:00:00 28,0 22,0 5 3 O 10
17.08.2017 19:00:00 29,0 23,0 5 3 OSO 10
17.08.2017 18:00:00 29,0 22,0 11 6 SO 10
17.08.2017 17:00:00 29,0 22,0 9 5 S 10
17.08.2017 16:00:00 29,0 22,0 8 4 SE 10
17.08.2017 15:00:00 29,0 23,0 8 4 SE 10
17.08.2017 14:00:00 29,0 23,0 8 4 ESE 10
17.08.2017 13:00:00 29,0 23,0 9 5 SE 10
17.08.2017 12:00:00 28,0 23,0 9 5 SE 10
17.08.2017 11:00:00 28,0 23,0 13 7 ESE 10
17.08.2017 10:00:00 27,0 24,0 9 5 ENE 10
17.08.2017 09:00:00 27,0 23,0 4 2 NNE 10

tt = Temperatura
td = dewpoint
ff = velocità del vento
dd = direzione del vento
vv = visibility

Stazioni seguenti

WeatherPro
AMSI
MeteoEarth